Location: Windsor
(43.2292°N, 89.3015°W)
Time: 20:09:28
(UTC+00:00)

RS-44 - Pass Details

Date: 01 July 2022
Orbit: 1175 x 1510 km, 82.5° (Epoch: 16 August)

Event Time Altitude Azimuth Distance (km) Brightness Sun altitude
Rises 02:37:06 0° 192° (SSW) 4,301 ? -8.8°
Reaches altitude 10° 02:39:47 10° 194° (SSW) 3,376 ? -9.2°
Maximum altitude 02:47:53 76° 280° (W) 1,456 ? -10.2°
Drops below altitude 10° 02:56:37 10° 6° (N) 3,624 ? -11.3°
Sets 02:59:36 0° 8° (N) 4,632 ? -11.7°
